Content
SEND FEEDBACK

Daily
Averages
Monthly
Summary
United States of America

SOLEN, NORTH DAKOTA


Home > North America > United States > North Dakota
Elevation: 532 meters     Latitude: 46 24N     Longitude: 100 56W

WEATHER
 
SELECT A DAY
Number of Records: 81,002;   Date Range: 11/18/10 - 7/27/14
 
SHARE

PRINT THIS DATA

[ ← Previous Day ]
WEATHER ALMANAC - 31 JANUARY, 2013
[ Next Day → ]
[ °F ]   °C
Weather ElementAverageHighLow
Temperature-24.9 °C-22 °C (3:15 pm)-27 °C (5:35 am)
Dewpoint-28.4 °C-27 °C (12:35 am)-30 °C (5:35 am)
Humidity73.2 %77 % (1:35 am)65 % (3:15 pm)
Barometer1022 hPa1025.7 hPa (10:55 am)1015.9 hPa (12:35 am)
Wind Speed26.1 km/h46.3 km/h (4:55 am)
Wind Gust59.2 km/h (4:15 am)
Weather ElementAverage
Visibility10.9 km
Wind DirectionWNW (297.5 °)

Weather ElementTotal
Precipitation0.25 mm
Heating Degree Days42.8 (Base 18.3)
Averaged from 59 records on 31 January, 2013
WEATHER CONDITIONS BREAKOUT
WIND DIRECTION BREAKOUT
WEATHER BY HOUR - 31 JANUARY, 2013
[ °F ]   °C
Local TimeTemperatureDewpointHumidityBarometerVisibilityWind DirectionWind SpeedGust SpeedPrecipitationEventsConditions
12:35 AM-23 °C-27 °C71 %1015.9 hPa9.7 kmNNW (330°)37 km/h44.4 km/hSnowLight Snow
12:55 AM-23 °C-27 °C71 %1016.3 hPa12.9 kmNNW (330°)37 km/hOvercast
1:15 AM-23 °C-27 °C71 %1016.6 hPa6.4 kmNW (320°)31.5 km/h48.1 km/hRainLight Rain
1:35 AM-24 °C-27 °C77 %1016.6 hPa4.8 kmNNW (330°)35.2 km/h44.4 km/hRainLight Rain
1:55 AM-24 °C-27 °C77 %1016.9 hPa3.2 kmNW (320°)37 km/h42.6 km/hRainLight Rain
2:15 AM-24 °C-27 °C77 %1017.3 hPa2.9 kmNNW (330°)40.7 km/h50.1 km/hSnowLight Snow
2:35 AM-24 °C-27 °C77 %1017.9 hPa3.2 kmNW (320°)31.5 km/h51.8 km/hRainLight Rain
2:55 AM-24 °C-27 °C77 %1018.3 hPa4.8 kmNNW (330°)35.2 km/h46.3 km/h0.25 mmRainLight Rain
3:15 AM-25 °C-28 °C77 %1018.6 hPa4 kmNW (320°)40.7 km/h48.1 km/hRainLight Rain
3:35 AM-25 °C-28 °C77 %1018.6 hPa2.4 kmNNW (330°)44.4 km/h53.8 km/hRainLight Rain
3:55 AM-25 °C-29 °C70 %1018.6 hPa2.4 kmNNW (330°)35.2 km/h55.5 km/hHaze
4:15 AM-25 °C-29 °C70 %1019.3 hPa2.9 kmNW (320°)40.7 km/h59.2 km/hHaze
4:35 AM-26 °C-29 °C77 %1019.6 hPa4.8 kmNW (320°)38.9 km/h50.1 km/hHaze
4:55 AM-26 °C-29 °C77 %1020 hPa3.2 kmNW (320°)46.3 km/h53.8 km/hHaze
5:15 AM-26 °C-29 °C77 %1020.3 hPa4.8 kmNW (320°)38.9 km/h50.1 km/hHaze
5:35 AM-27 °C-30 °C76 %1020.7 hPa4 kmNW (320°)38.9 km/h51.8 km/hHaze
5:55 AM-27 °C-30 °C76 %1021 hPa4.8 kmNW (310°)38.9 km/h50.1 km/hHaze
6:15 AM-27 °C-30 °C76 %1021.7 hPa6.4 kmNW (320°)35.2 km/h48.1 km/hHaze
6:35 AM-27 °C-30 °C76 %1022.4 hPa6.4 kmNW (320°)33.3 km/h46.3 km/hHaze
6:55 AM-27 °C-30 °C76 %1022.7 hPa6.4 kmNW (320°)29.6 km/h46.3 km/hHaze
7:15 AM-27 °C-30 °C76 %1022.7 hPa6.4 kmNW (320°)37 km/h48.1 km/hHaze
7:35 AM-27 °C-30 °C76 %1023 hPa12.9 kmNW (320°)31.5 km/h46.3 km/hPartly Cloudy
7:55 AM-27 °C-30 °C76 %1023 hPa16.1 kmNW (320°)35.2 km/h42.6 km/hClear
8:15 AM-27 °C-30 °C76 %1023.4 hPa16.1 kmNW (310°)29.6 km/h37 km/hClear
8:35 AM-27 °C-30 °C76 %1023.7 hPa14.5 kmNW (310°)31.5 km/h40.7 km/hClear
8:55 AM-27 °C-30 °C76 %1024 hPa16.1 kmNW (310°)27.8 km/h35.2 km/hClear
9:15 AM-27 °C-30 °C76 %1024.4 hPa8 kmNW (310°)29.6 km/h38.9 km/hHaze
9:35 AM-26 °C-30 °C70 %1024.7 hPa9.7 kmNW (310°)25.9 km/h38.9 km/hHaze
9:55 AM-26 °C-30 °C70 %1025.1 hPa14.5 kmNW (310°)24.1 km/h35.2 km/hClear
10:15 AM-25 °C-29 °C70 %1025.1 hPa16.1 kmNW (310°)27.8 km/h33.3 km/hClear
10:35 AM-25 °C-29 °C70 %1025.4 hPa14.5 kmNW (310°)27.8 km/hClear
10:55 AM-25 °C-29 °C70 %1025.7 hPa16.1 kmNW (310°)35.2 km/h42.6 km/hClear
11:15 AM-25 °C-29 °C70 %1025.7 hPa9.7 kmNW (310°)31.5 km/h46.3 km/hHaze
2:55 PM-23 °C-27 °C71 %1024.7 hPa16.1 kmWNW (300°)29.6 km/h35.2 km/hClear
3:15 PM-22 °C-27 °C65 %1024.7 hPa16.1 kmWNW (300°)25.9 km/hClear
3:35 PM-22 °C-27 °C65 %1024.7 hPa16.1 kmWNW (300°)27.8 km/hClear
3:55 PM-22 °C-27 °C65 %1024.4 hPa16.1 kmWNW (300°)25.9 km/hClear
4:15 PM-22 °C-27 °C65 %1024.4 hPa16.1 kmWNW (300°)20.4 km/hPartly Cloudy
4:35 PM-22 °C-27 °C65 %1024.4 hPa16.1 kmWNW (300°)22.2 km/hPartly Cloudy
4:55 PM-22 °C-27 °C65 %1024.4 hPa16.1 kmWNW (300°)24.1 km/hClear
5:15 PM-22 °C-27 °C65 %1024.4 hPa16.1 kmWNW (290°)22.2 km/hClear
5:35 PM-23 °C-27 °C71 %1024 hPa16.1 kmWNW (300°)18.5 km/hScattered Clouds
6:15 PM-23 °C-27 °C71 %1024 hPa16.1 kmWNW (290°)13 km/hMostly Cloudy
6:35 PM-24 °C-28 °C70 %1024 hPa16.1 kmNW (310°)11.1 km/hScattered Clouds
6:55 PM-25 °C-28 °C77 %1024 hPa16.1 kmWNW (300°)11.1 km/hClear
7:15 PM-25 °C-29 °C70 %1024.4 hPa16.1 kmWest (280°)14.8 km/hClear
7:35 PM-26 °C-29 °C77 %1023.7 hPa16.1 kmWNW (300°)14.8 km/hClear
7:55 PM-26 °C-29 °C77 %1023.7 hPa16.1 kmWest (280°)16.7 km/hPartly Cloudy
8:15 PM-26 °C-29 °C77 %1023.7 hPa16.1 kmWSW (250°)11.1 km/hScattered Clouds
8:35 PM-25 °C-29 °C70 %1023.4 hPa16.1 kmWest (260°)9.3 km/hMostly Cloudy
9:15 PM-26 °C-29 °C77 %1023 hPaSW (220°)5.6 km/hMostly Cloudy
9:35 PM-25 °C-28 °C77 %1022.7 hPaSW (230°)5.6 km/hMostly Cloudy
9:55 PM-25 °C-28 °C77 %1022.7 hPaWSW (240°)7.4 km/hPartly Cloudy
10:15 PM-25 °C-29 °C70 %1022.4 hPaWSW (240°)7.4 km/hClear
10:35 PM-25 °C-28 °C77 %1022 hPaSW (230°)9.3 km/hClear
10:55 PM-25 °C-28 °C77 %1021.7 hPaSW (220°)9.3 km/hClear
11:15 PM-25 °C-28 °C77 %1022 hPaSW (230°)13 km/hMostly Cloudy
11:35 PM-25 °C-28 °C77 %1021.7 hPaWSW (240°)7.4 km/hOvercast
11:55 PM-24 °C-28 °C70 %1021.7 hPaSW (220°)9.3 km/hOvercast
Hourly data recorded from KY19, located 0 kilometers away from Solen, North Dakota







STORIES FROM OUR PARTNERS